FLOCK 2K-02

Last updated on Wed Feb 14 2018 16:20:52 GMT+0000 (Coordinated Universal Time)

1 42853U 17042AE 18044.89388886 .00001727 00000-0 55448-4 0 9998 2 42853 96.9932 307.3772 0011070 193.8459 166.2483 15.33520390 32689

Satellite not in orbit

FLOCK 2K-02